IRIDIUM 33 DEB, 37548

Orbit data source: Space-Track

IRIDIUM 33 DEB, 37548 is space debris in LEO originally from a launch on Sun, 14 Sep 1997 UTC launched from the Tyuratam Missile And Space Complex (TTMTR). The debris from Iridium 33, an American commercial communications satellite, has been tracked extensively since its accidental collision with the defunct Russian satellite Cosmos 2251 in 2009. This event, occurring at high speed in low Earth orbit (LEO), generated thousands of pieces of space debris, significantly increasing the risk of further collisions. The Iridium 33 debris cloud has impacted space traffic management and orbital debris mitigation strategies, making it a subject of ongoing study in space situational awareness.

Loading next visibility...
Identifier
37548, 1997-051XH
Orbit
LEO
Country
Flag of USUS
Related business
Manufacturer
Unknown
Mission
Spacecraft
Bus & Motor
Unknown
Mass
Unknown
Launch date (UTC)
1997-09-14 (28 years ago)
Launch vehicle
Unknown
Launch site
Tyuratam Missile And Space Complex (TTMTR)
Object type
Payload
Rocket body
Debris
Shape & HBR
Unknown shape, 0.1 m
Radar Cross Section
Small (<0.1 m²)

Expand to show TLE details & history
Last TLE update: 1 week ago

TLE from 1 week ago
0 IRIDIUM 33 DEB
1 37548U 97051XH  25289.65490475  .00005958  00000-0  15094-2 0  9993
2 37548  86.3486  68.1906 0025848  28.6519 331.6100 14.50550509647041
Epoch: 2025-10-16T15:43Z
TLE epoch observation values (Epoch: 2025-10-16T15:43:03.770Z)
Latitude
0.00004°
Longitude
167.01338°
Altitude
710.782 km
Speed
7.509 km/s
True Right ascension
04h 32m 45s
True Declination
0° 00' 00"
Sunlit
Object was in full shadow at epoch
Visualization orbit readout
Latitude
Unknown
Longitude
Unknown
Altitude
Unknown
Speed
Unknown
Apparent Right ascension
Unknown
Apparent Declination
Unknown
Sunlit
N/A
Visualization observer readout
Local Sidereal Time
12:40:11
Azimuth
Unknown
Elevation
Unknown
Doppler factor
Unknown
Orbital elements
Apogee altitude
739.143 km
Perigee altitude
702.444 km
Semi-major axis
7,098.93 km
Eccentricity
0.00258
Inclination
86.3486°
RAAN
68.1906°
Arg. of periapsis
28.6519°
True anomaly
331.46877°
Mean anomaly
331.61°
Eccentric anomaly
331.53942°
Mean motion
3.62872 °/min
Orbital period
99.21 mins
BSTAR
0.0015094
Loading maneuver chart data...
Computing Atmospheric mass density...

Documentation

Showing up to 5 results
|